QPF
0.00 0.00 0.00 0.01 0.01 0.01 0.01 0.00 0.00 0.00 0.00 0.00 0.00 0.00 0.00 0.01 0.02 0.03 0.01 0.00 0.00 0.01 0.00 0.00 0.01 0.02 0.02 0.03 0.03 0.03 0.02 0.02 0.01 0.01 0.01 0.02 0.04 0.03 0.03 0.03 0.05 0.04 0.03 0.06 0.06 0.03 0.02 0.02 0.03
0.00 0.00 0.00 0.01 0.01 0.00 0.00 0.00 0.00 0.00 0.00 0.00 0.00 0.00 0.00 0.00 0.00 0.00 0.00 0.00 0.01 0.01 0.01 0.00 0.01 0.02 0.02 0.02 0.02 0.03 0.03 0.03 0.02 0.01 0.01 0.02 0.04 0.06 0.06 0.06 0.06 0.03 0.02 0.03 0.06 0.06 0.03 0.02 0.02
0.00 0.00 0.01 0.01 0.01 0.00 0.00 0.00 0.00 0.00 0.00 0.00 0.00 0.00 0.00 0.00 0.00 0.00 0.00 0.01 0.01 0.01 0.01 0.00 0.01 0.01 0.02 0.02 0.02 0.02 0.02 0.03 0.03 0.03 0.03 0.02 0.02 0.04 0.06 0.06 0.05 0.04 0.03 0.03 0.03 0.04 0.04 0.02 0.01
0.01 0.01 0.01 0.00 0.00 0.00 0.00 0.00 0.00 0.00 0.00 0.00 0.00 0.00 0.00 0.00 0.00 0.00 0.00 0.01 0.01 0.01 0.01 0.00 0.01 0.01 0.02 0.03 0.01 0.01 0.02 0.02 0.02 0.03 0.03 0.04 0.04 0.04 0.04 0.04 0.03 0.03 0.02 0.02 0.02 0.02 0.02 0.03 0.02
0.01 0.01 0.01 0.00 0.00 0.00 0.00 0.00 0.00 0.00 0.00 0.00 0.00 0.00 0.00 0.00 0.00 0.00 0.01 0.01 0.01 0.01 0.01 0.01 0.01 0.01 0.02 0.03 0.01 0.01 0.01 0.02 0.02 0.03 0.03 0.04 0.05 0.05 0.03 0.02 0.02 0.02 0.02 0.02 0.02 0.02 0.01 0.01 0.02
0.01 0.01 0.01 0.00 0.00 0.00 0.00 0.00 0.00 0.00 0.00 0.00 0.00 0.01 0.00 0.00 0.00 0.01 0.01 0.01 0.01 0.01 0.01 0.01 0.01 0.01 0.03 0.03 0.02 0.02 0.02 0.02 0.02 0.03 0.03 0.03 0.05 0.04 0.03 0.02 0.02 0.03 0.02 0.03 0.03 0.03 0.02 0.01 0.01
0.01 0.01 0.01 0.00 0.00 0.00 0.00 0.00 0.00 0.00 0.00 0.00 0.00 0.01 0.00 0.00 0.00 0.01 0.01 0.01 0.01 0.01 0.01 0.01 0.01 0.01 0.02 0.02 0.01 0.01 0.01 0.02 0.02 0.02 0.03 0.03 0.03 0.04 0.04 0.04 0.04 0.04 0.03 0.04 0.03 0.03 0.02 0.01 0.01
0.01 0.01 0.00 0.00 0.00 0.00 0.00 0.00 0.00 0.00 0.00 0.00 0.00 0.00 0.00 0.00 0.00 0.01 0.01 0.01 0.01 0.01 0.01 0.01 0.01 0.01 0.02 0.02 0.02 0.01 0.01 0.01 0.01 0.01 0.02 0.02 0.03 0.04 0.04 0.04 0.05 0.04 0.04 0.04 0.04 0.03 0.02 0.01 0.01
0.02 0.01 0.01 0.00 0.00 0.00 0.00 0.00 0.00 0.00 0.00 0.00 0.00 0.00 0.00 0.00 0.00 0.00 0.01 0.01 0.01 0.01 0.02 0.01 0.01 0.02 0.03 0.03 0.01 0.01 0.01 0.01 0.01 0.01 0.01 0.01 0.03 0.05 0.04 0.04 0.05 0.04 0.05 0.05 0.06 0.04 0.02 0.01 0.01
0.03 0.01 0.00 0.00 0.00 0.00 0.00 0.00 0.00 0.00 0.00 0.00 0.00 0.00 0.00 0.00 0.00 0.00 0.00 0.01 0.01 0.01 0.01 0.01 0.01 0.01 0.01 0.02 0.02 0.02 0.02 0.02 0.01 0.01 0.01 0.02 0.04 0.06 0.07 0.06 0.07 0.08 0.09 0.12 0.09 0.03 0.01 0.01 0.01
0.03 0.01 0.00 0.00 0.00 0.00 0.00 0.00 0.00 0.00 0.00 0.00 0.00 0.00 0.00 0.00 0.00 0.00 0.00 0.00 0.00 0.01 0.01 0.01 0.01 0.01 0.01 0.02 0.02 0.02 0.02 0.02 0.03 0.02 0.02 0.03 0.03 0.04 0.05 0.06 0.07 0.10 0.14 0.15 0.08 0.04 0.02 0.01 0.01
0.02 0.01 0.00 0.00 0.00 0.00 0.00 0.00 0.00 0.00 0.00 0.00 0.00 0.00 0.00 0.00 0.00 0.00 0.00 0.00 0.00 0.01 0.01 0.01 0.02 0.02 0.02 0.02 0.02 0.02 0.02 0.02 0.03 0.02 0.02 0.04 0.04 0.04 0.05 0.05 0.05 0.07 0.10 0.10 0.08 0.07 0.04 0.02 0.01
0.02 0.01 0.01 0.00 0.00 0.00 0.00 0.00 0.00 0.00 0.00 0.00 0.00 0.00 0.00 0.00 0.00 0.00 0.00 0.00 0.00 0.01 0.01 0.01 0.02 0.02 0.03 0.03 0.02 0.02 0.02 0.03 0.03 0.03 0.02 0.02 0.03 0.04 0.05 0.05 0.05 0.05 0.07 0.07 0.09 0.09 0.07 0.05 0.03
0.01 0.01 0.01 0.01 0.01 0.01 0.00 0.00 0.00 0.00 0.00 0.00 0.00 0.00 0.00 0.00 0.00 0.00 0.00 0.00 0.00 0.01 0.01 0.01 0.01 0.02 0.02 0.03 0.03 0.02 0.02 0.03 0.04 0.04 0.04 0.03 0.03 0.03 0.03 0.05 0.06 0.06 0.06 0.06 0.07 0.08 0.08 0.08 0.06
0.02 0.02 0.01 0.01 0.01 0.01 0.01 0.00 0.00 0.00 0.00 0.00 0.00 0.00 0.00 0.00 0.00 0.00 0.00 0.00 0.00 0.01 0.01 0.01 0.01 0.02 0.02 0.03 0.04 0.03 0.02 0.03 0.03 0.03 0.03 0.02 0.02 0.02 0.02 0.02 0.05 0.08 0.10 0.09 0.10 0.10 0.09 0.10 0.09
0.02 0.02 0.02 0.01 0.01 0.01 0.01 0.00 0.00 0.00 0.00 0.00 0.00 0.00 0.00 0.00 0.00 0.00 0.00 0.00 0.00 0.00 0.00 0.00 0.01 0.01 0.01 0.02 0.03 0.04 0.03 0.02 0.02 0.02 0.03 0.02 0.01 0.02 0.02 0.02 0.02 0.03 0.07 0.12 0.13 0.12 0.11 0.10 0.08
0.02 0.02 0.02 0.01 0.01 0.01 0.01 0.00 0.00 0.00 0.00 0.00 0.00 0.00 0.00 0.00 0.01 0.01 0.00 0.00 0.00 0.00 0.00 0.00 0.00 0.01 0.01 0.01 0.02 0.03 0.04 0.04 0.03 0.03 0.03 0.02 0.02 0.02 0.02 0.02 0.02 0.02 0.04 0.06 0.09 0.10 0.10 0.09 0.07
0.03 0.02 0.01 0.01 0.01 0.01 0.01 0.00 0.01 0.00 0.00 0.00 0.00 0.00 0.00 0.00 0.00 0.00 0.00 0.00 0.00 0.00 0.00 0.00 0.00 0.00 0.00 0.01 0.01 0.03 0.03 0.04 0.05 0.04 0.04 0.03 0.02 0.02 0.02 0.03 0.02 0.02 0.03 0.04 0.06 0.06 0.07 0.07 0.06
0.02 0.02 0.02 0.01 0.01 0.01 0.01 0.00 0.01 0.01 0.00 0.00 0.00 0.00 0.00 0.00 0.00 0.00 0.00 0.00 0.00 0.00 0.00 0.00 0.00 0.00 0.00 0.01 0.01 0.02 0.02 0.02 0.03 0.03 0.04 0.04 0.02 0.02 0.02 0.02 0.02 0.02 0.02 0.03 0.03 0.04 0.05 0.05 0.05
0.01 0.02 0.02 0.02 0.01 0.01 0.01 0.01 0.01 0.00 0.00 0.00 0.00 0.00 0.00 0.00 0.00 0.00 0.00 0.00 0.00 0.00 0.00 0.00 0.00 0.00 0.00 0.01 0.01 0.01 0.02 0.02 0.01 0.02 0.02 0.03 0.03 0.02 0.02 0.02 0.02 0.02 0.02 0.02 0.02 0.03 0.03 0.04 0.05
0.02 0.02 0.02 0.02 0.02 0.01 0.00 0.01 0.00 0.00 0.00 0.00 0.00 0.00 0.00 0.00 0.00 0.00 0.00 0.00 0.00 0.00 0.00 0.00 0.01 0.01 0.02 0.02 0.02 0.03 0.03 0.04 0.04 0.03 0.02 0.02 0.02 0.02 0.01 0.02 0.02 0.02 0.02 0.03 0.02 0.02 0.02 0.02 0.03
0.02 0.01 0.01 0.02 0.02 0.02 0.01 0.01 0.01 0.00 0.00 0.00 0.00 0.00 0.00 0.00 0.00 0.00 0.00 0.00 0.00 0.01 0.00 0.01 0.01 0.01 0.02 0.02 0.03 0.04 0.04 0.04 0.03 0.03 0.02 0.02 0.01 0.01 0.01 0.02 0.02 0.02 0.02 0.02 0.02 0.02 0.02 0.02 0.02
0.02 0.02 0.01 0.01 0.02 0.02 0.02 0.02 0.01 0.00 0.00 0.00 0.00 0.00 0.01 0.01 0.00 0.00 0.00 0.00 0.00 0.01 0.01 0.01 0.01 0.01 0.02 0.02 0.03 0.04 0.04 0.04 0.03 0.02 0.03 0.02 0.01 0.01 0.01 0.02 0.02 0.02 0.02 0.02 0.02 0.01 0.01 0.01 0.02
0.01 0.02 0.02 0.02 0.03 0.03 0.01 0.01 0.01 0.00 0.00 0.00 0.00 0.00 0.00 0.01 0.01 0.01 0.01 0.01 0.01 0.01 0.01 0.01 0.01 0.00 0.01 0.01 0.02 0.03 0.03 0.04 0.04 0.03 0.02 0.02 0.02 0.02 0.02 0.02 0.02 0.02 0.03 0.03 0.03 0.02 0.01 0.01 0.01
0.02 0.03 0.04 0.04 0.04 0.02 0.01 0.01 0.01 0.00 0.00 0.00 0.01 0.01 0.00 0.01 0.01 0.02 0.02 0.01 0.01 0.01 0.01 0.01 0.01 0.01 0.00 0.01 0.01 0.02 0.03 0.04 0.04 0.03 0.02 0.02 0.01 0.02 0.02 0.02 0.02 0.03 0.02 0.03 0.03 0.03 0.02 0.01 0.01
0.02 0.03 0.03 0.03 0.02 0.01 0.00 0.00 0.00 0.00 0.00 0.00 0.01 0.01 0.01 0.00 0.01 0.02 0.02 0.02 0.01 0.01 0.01 0.01 0.01 0.01 0.00 0.00 0.01 0.01 0.02 0.02 0.03 0.03 0.03 0.02 0.01 0.00 0.01 0.02 0.02 0.03 0.03 0.03 0.03 0.04 0.03 0.02 0.01
0.01 0.02 0.02 0.03 0.02 0.01 0.01 0.00 0.00 0.00 0.00 0.01 0.02 0.01 0.01 0.01 0.01 0.02 0.02 0.02 0.02 0.02 0.01 0.01 0.01 0.01 0.01 0.01 0.01 0.01 0.01 0.02 0.02 0.02 0.02 0.02 0.01 0.01 0.01 0.01 0.01 0.02 0.03 0.04 0.04 0.04 0.04 0.03 0.01
0.01 0.02 0.03 0.04 0.03 0.02 0.01 0.01 0.00 0.00 0.00 0.01 0.02 0.01 0.01 0.01 0.01 0.01 0.02 0.03 0.02 0.02 0.01 0.01 0.00 0.01 0.01 0.01 0.01 0.02 0.02 0.02 0.01 0.02 0.02 0.01 0.01 0.01 0.01 0.01 0.01 0.02 0.01 0.03 0.04 0.05 0.04 0.04 0.02
0.02 0.03 0.04 0.03 0.03 0.03 0.02 0.01 0.02 0.01 0.01 0.02 0.02 0.01 0.01 0.01 0.01 0.01 0.01 0.02 0.02 0.01 0.01 0.01 0.00 0.00 0.01 0.01 0.01 0.01 0.02 0.02 0.02 0.02 0.02 0.01 0.01 0.01 0.02 0.01 0.01 0.01 0.01 0.02 0.03 0.04 0.04 0.05 0.04
0.02 0.01 0.02 0.04 0.03 0.02 0.03 0.02 0.01 0.01 0.01 0.02 0.02 0.01 0.01 0.00 0.00 0.00 0.01 0.01 0.02 0.02 0.01 0.01 0.00 0.00 0.01 0.01 0.01 0.01 0.02 0.02 0.03 0.02 0.02 0.02 0.02 0.02 0.01 0.01 0.00 0.01 0.01 0.01 0.03 0.04 0.04 0.04 0.04
MSLP
1013.34 1013.45 1013.82 1014.39 1015.05 1015.67 1016.10 1016.28 1016.16 1015.82 1015.38 1015.01 1014.87 1015.04 1015.55 1016.34 1017.26 1018.13 1018.76 1019.04 1018.91 1018.42 1017.67 1016.83 1016.02 1015.38 1014.95 1014.72 1014.64 1014.65 1014.67 1014.67 1014.64 1014.61 1014.62 1014.70 1014.87 1015.12 1015.40 1015.67 1015.89 1016.05 1016.16 1016.24 1016.35 1016.49 1016.70 1016.96 1017.24
1013.56 1013.74 1014.15 1014.74 1015.38 1015.96 1016.35 1016.49 1016.37 1016.06 1015.69 1015.42 1015.37 1015.63 1016.20 1016.99 1017.88 1018.67 1019.21 1019.39 1019.20 1018.67 1017.93 1017.11 1016.36 1015.76 1015.35 1015.11 1015.01 1014.96 1014.91 1014.85 1014.76 1014.70 1014.68 1014.75 1014.91 1015.14 1015.40 1015.64 1015.84 1015.97 1016.07 1016.15 1016.26 1016.42 1016.65 1016.94 1017.23
1013.77 1013.98 1014.42 1014.99 1015.61 1016.15 1016.51 1016.64 1016.55 1016.30 1016.04 1015.88 1015.94 1016.28 1016.87 1017.64 1018.44 1019.11 1019.52 1019.60 1019.34 1018.79 1018.08 1017.31 1016.63 1016.09 1015.72 1015.49 1015.35 1015.25 1015.13 1014.99 1014.84 1014.73 1014.68 1014.72 1014.85 1015.06 1015.29 1015.52 1015.70 1015.83 1015.93 1016.03 1016.17 1016.37 1016.64 1016.95 1017.26
1013.93 1014.19 1014.64 1015.20 1015.79 1016.30 1016.64 1016.78 1016.75 1016.60 1016.45 1016.42 1016.59 1016.98 1017.57 1018.27 1018.95 1019.48 1019.75 1019.71 1019.38 1018.82 1018.15 1017.47 1016.87 1016.41 1016.09 1015.88 1015.71 1015.55 1015.36 1015.14 1014.92 1014.74 1014.64 1014.64 1014.74 1014.92 1015.14 1015.35 1015.53 1015.68 1015.81 1015.96 1016.15 1016.39 1016.70 1017.04 1017.37
1014.08 1014.39 1014.86 1015.42 1015.99 1016.47 1016.81 1016.99 1017.02 1016.98 1016.96 1017.04 1017.29 1017.72 1018.27 1018.87 1019.41 1019.78 1019.90 1019.75 1019.37 1018.82 1018.21 1017.63 1017.14 1016.77 1016.51 1016.30 1016.11 1015.89 1015.62 1015.32 1015.02 1014.77 1014.61 1014.56 1014.63 1014.78 1014.97 1015.18 1015.38 1015.56 1015.75 1015.95 1016.20 1016.51 1016.85 1017.22 1017.55
1014.26 1014.62 1015.13 1015.71 1016.27 1016.75 1017.10 1017.32 1017.42 1017.47 1017.55 1017.73 1018.03 1018.46 1018.96 1019.44 1019.83 1020.03 1020.01 1019.77 1019.35 1018.84 1018.30 1017.83 1017.45 1017.17 1016.96 1016.78 1016.56 1016.28 1015.94 1015.55 1015.17 1014.85 1014.62 1014.52 1014.54 1014.65 1014.82 1015.03 1015.25 1015.47 1015.71 1015.99 1016.31 1016.67 1017.06 1017.44 1017.78
1014.52 1014.97 1015.53 1016.13 1016.70 1017.19 1017.55 1017.79 1017.94 1018.06 1018.22 1018.45 1018.78 1019.17 1019.59 1019.95 1020.19 1020.24 1020.11 1019.80 1019.37 1018.90 1018.45 1018.08 1017.81 1017.61 1017.45 1017.28 1017.04 1016.71 1016.30 1015.84 1015.38 1014.99 1014.69 1014.53 1014.49 1014.55 1014.69 1014.88 1015.11 1015.37 1015.67 1016.01 1016.40 1016.83 1017.25 1017.65 1017.98
1014.94 1015.47 1016.09 1016.72 1017.30 1017.78 1018.13 1018.38 1018.56 1018.72 1018.91 1019.16 1019.47 1019.82 1020.15 1020.39 1020.50 1020.44 1020.22 1019.86 1019.44 1019.02 1018.66 1018.38 1018.20 1018.07 1017.94 1017.76 1017.50 1017.12 1016.66 1016.14 1015.62 1015.17 1014.81 1014.58 1014.48 1014.48 1014.56 1014.72 1014.94 1015.21 1015.55 1015.95 1016.40 1016.88 1017.35 1017.76 1018.09
1015.55 1016.16 1016.83 1017.47 1018.04 1018.49 1018.82 1019.05 1019.21 1019.37 1019.55 1019.79 1020.07 1020.36 1020.61 1020.76 1020.77 1020.63 1020.35 1019.99 1019.59 1019.22 1018.92 1018.72 1018.59 1018.50 1018.38 1018.19 1017.90 1017.49 1016.98 1016.42 1015.87 1015.37 1014.97 1014.67 1014.49 1014.41 1014.42 1014.52 1014.70 1014.96 1015.32 1015.76 1016.26 1016.79 1017.29 1017.73 1018.06
1016.33 1016.99 1017.68 1018.32 1018.85 1019.25 1019.53 1019.70 1019.83 1019.95 1020.10 1020.31 1020.54 1020.78 1020.96 1021.05 1021.00 1020.82 1020.53 1020.17 1019.81 1019.49 1019.24 1019.08 1018.98 1018.89 1018.76 1018.54 1018.21 1017.77 1017.25 1016.67 1016.10 1015.58 1015.13 1014.78 1014.52 1014.35 1014.27 1014.28 1014.39 1014.62 1014.96 1015.41 1015.95 1016.52 1017.07 1017.54 1017.90
1017.23 1017.91 1018.57 1019.16 1019.63 1019.96 1020.15 1020.26 1020.32 1020.39 1020.50 1020.66 1020.85 1021.05 1021.19 1021.24 1021.18 1021.00 1020.73 1020.41 1020.09 1019.81 1019.60 1019.45 1019.34 1019.23 1019.06 1018.80 1018.44 1017.98 1017.44 1016.87 1016.31 1015.78 1015.31 1014.91 1014.58 1014.31 1014.12 1014.02 1014.04 1014.20 1014.50 1014.95 1015.50 1016.11 1016.71 1017.23 1017.63
1018.14 1018.78 1019.39 1019.90 1020.28 1020.51 1020.62 1020.64 1020.63 1020.64 1020.70 1020.82 1020.99 1021.16 1021.29 1021.35 1021.30 1021.16 1020.93 1020.66 1020.39 1020.15 1019.96 1019.81 1019.67 1019.51 1019.29 1018.99 1018.59 1018.12 1017.59 1017.04 1016.50 1015.99 1015.52 1015.08 1014.67 1014.31 1014.00 1013.79 1013.69 1013.75 1013.99 1014.40 1014.96 1015.60 1016.25 1016.84 1017.31
1018.94 1019.51 1020.03 1020.43 1020.71 1020.84 1020.86 1020.81 1020.74 1020.70 1020.72 1020.81 1020.95 1021.12 1021.26 1021.34 1021.34 1021.25 1021.09 1020.89 1020.68 1020.48 1020.30 1020.14 1019.97 1019.76 1019.48 1019.13 1018.71 1018.23 1017.72 1017.20 1016.70 1016.22 1015.75 1015.29 1014.83 1014.37 1013.95 1013.60 1013.38 1013.33 1013.48 1013.85 1014.39 1015.05 1015.76 1016.42 1016.97
1019.53 1020.00 1020.40 1020.71 1020.89 1020.94 1020.89 1020.78 1020.66 1020.58 1020.57 1020.64 1020.77 1020.94 1021.10 1021.22 1021.27 1021.25 1021.17 1021.04 1020.89 1020.74 1020.58 1020.41 1020.21 1019.96 1019.64 1019.26 1018.83 1018.35 1017.86 1017.38 1016.92 1016.47 1016.02 1015.54 1015.03 1014.50 1013.97 1013.50 1013.14 1012.97 1013.03 1013.32 1013.83 1014.51 1015.26 1016.00 1016.64
1019.86 1020.23 1020.54 1020.76 1020.87 1020.87 1020.78 1020.63 1020.47 1020.36 1020.33 1020.37 1020.49 1020.65 1020.82 1020.97 1021.08 1021.12 1021.11 1021.06 1020.98 1020.87 1020.75 1020.59 1020.38 1020.12 1019.78 1019.39 1018.95 1018.49 1018.02 1017.58 1017.16 1016.74 1016.30 1015.82 1015.27 1014.67 1014.05 1013.46 1012.98 1012.68 1012.63 1012.84 1013.30 1013.96 1014.75 1015.56 1016.30
1019.97 1020.25 1020.51 1020.68 1020.76 1020.73 1020.62 1020.45 1020.27 1020.12 1020.05 1020.05 1020.14 1020.28 1020.45 1020.62 1020.76 1020.85 1020.90 1020.92 1020.90 1020.86 1020.78 1020.65 1020.47 1020.21 1019.89 1019.50 1019.07 1018.63 1018.20 1017.78 1017.39 1016.99 1016.56 1016.07 1015.50 1014.84 1014.14 1013.45 1012.86 1012.44 1012.26 1012.37 1012.76 1013.40 1014.20 1015.06 1015.89
1019.93 1020.19 1020.43 1020.60 1020.68 1020.66 1020.53 1020.34 1020.12 1019.92 1019.79 1019.73 1019.76 1019.86 1020.00 1020.17 1020.32 1020.45 1020.55 1020.63 1020.67 1020.68 1020.66 1020.58 1020.44 1020.22 1019.93 1019.57 1019.17 1018.76 1018.34 1017.95 1017.56 1017.18 1016.75 1016.25 1015.65 1014.96 1014.20 1013.43 1012.73 1012.19 1011.89 1011.89 1012.19 1012.76 1013.55 1014.44 1015.35
1019.89 1020.18 1020.45 1020.66 1020.76 1020.74 1020.60 1020.36 1020.07 1019.79 1019.56 1019.42 1019.36 1019.40 1019.51 1019.65 1019.81 1019.96 1020.10 1020.22 1020.32 1020.38 1020.41 1020.39 1020.30 1020.13 1019.89 1019.57 1019.21 1018.81 1018.42 1018.03 1017.64 1017.25 1016.81 1016.30 1015.69 1014.96 1014.16 1013.33 1012.54 1011.90 1011.49 1011.36 1011.55 1012.03 1012.77 1013.66 1014.62
1019.99 1020.35 1020.70 1020.96 1021.08 1021.04 1020.84 1020.51 1020.10 1019.69 1019.33 1019.07 1018.93 1018.89 1018.96 1019.09 1019.26 1019.43 1019.60 1019.76 1019.89 1020.00 1020.07 1020.09 1020.05 1019.94 1019.75 1019.47 1019.14 1018.77 1018.38 1017.99 1017.59 1017.18 1016.72 1016.20 1015.57 1014.83 1014.00 1013.13 1012.28 1011.55 1011.02 1010.76 1010.82 1011.19 1011.84 1012.70 1013.67
1020.32 1020.79 1021.22 1021.52 1021.64 1021.52 1021.20 1020.72 1020.14 1019.55 1019.03 1018.64 1018.40 1018.31 1018.36 1018.50 1018.69 1018.91 1019.11 1019.30 1019.46 1019.59 1019.68 1019.73 1019.73 1019.65 1019.50 1019.27 1018.96 1018.61 1018.22 1017.81 1017.40 1016.96 1016.48 1015.93 1015.30 1014.55 1013.72 1012.82 1011.93 1011.13 1010.50 1010.11 1010.03 1010.26 1010.80 1011.58 1012.52
1020.90 1021.49 1021.99 1022.30 1022.34 1022.09 1021.58 1020.87 1020.06 1019.25 1018.55 1018.03 1017.71 1017.61 1017.68 1017.87 1018.13 1018.41 1018.67 1018.89 1019.07 1019.20 1019.29 1019.34 1019.34 1019.28 1019.15 1018.95 1018.67 1018.33 1017.94 1017.52 1017.07 1016.60 1016.10 1015.54 1014.90 1014.16 1013.34 1012.44 1011.52 1010.67 1009.95 1009.44 1009.21 1009.29 1009.68 1010.34 1011.21
1021.68 1022.37 1022.89 1023.14 1023.05 1022.59 1021.82 1020.83 1019.74 1018.69 1017.81 1017.17 1016.82 1016.75 1016.90 1017.20 1017.58 1017.96 1018.29 1018.55 1018.74 1018.86 1018.92 1018.95 1018.92 1018.86 1018.73 1018.54 1018.28 1017.94 1017.55 1017.12 1016.66 1016.17 1015.64 1015.07 1014.43 1013.71 1012.90 1012.02 1011.10 1010.21 1009.41 1008.80 1008.42 1008.33 1008.55 1009.07 1009.83
1022.51 1023.26 1023.76 1023.89 1023.60 1022.88 1021.79 1020.48 1019.10 1017.81 1016.77 1016.06 1015.72 1015.73 1016.02 1016.48 1017.01 1017.53 1017.96 1018.27 1018.46 1018.55 1018.57 1018.54 1018.47 1018.38 1018.24 1018.06 1017.81 1017.49 1017.11 1016.68 1016.21 1015.70 1015.16 1014.58 1013.94 1013.24 1012.45 1011.59 1010.69 1009.78 1008.93 1008.22 1007.70 1007.45 1007.49 1007.83 1008.44
1023.23 1023.99 1024.41 1024.38 1023.84 1022.82 1021.42 1019.79 1018.13 1016.64 1015.47 1014.74 1014.46 1014.59 1015.05 1015.71 1016.43 1017.09 1017.62 1017.99 1018.18 1018.24 1018.20 1018.10 1017.98 1017.85 1017.70 1017.52 1017.29 1017.00 1016.64 1016.22 1015.75 1015.23 1014.68 1014.09 1013.46 1012.77 1012.01 1011.19 1010.30 1009.39 1008.51 1007.72 1007.08 1006.67 1006.53 1006.68 1007.11
1023.69 1024.41 1024.72 1024.49 1023.70 1022.39 1020.69 1018.79 1016.90 1015.26 1014.03 1013.32 1013.13 1013.42 1014.06 1014.91 1015.81 1016.62 1017.25 1017.66 1017.85 1017.86 1017.76 1017.60 1017.43 1017.26 1017.11 1016.94 1016.74 1016.49 1016.16 1015.76 1015.30 1014.78 1014.22 1013.63 1013.00 1012.32 1011.59 1010.79 1009.93 1009.03 1008.13 1007.29 1006.56 1006.01 1005.69 1005.65 1005.89
1023.78 1024.43 1024.59 1024.18 1023.17 1021.62 1019.69 1017.59 1015.56 1013.85 1012.61 1011.95 1011.88 1012.32 1013.13 1014.15 1015.19 1016.11 1016.81 1017.24 1017.42 1017.39 1017.24 1017.02 1016.81 1016.62 1016.47 1016.33 1016.16 1015.96 1015.67 1015.30 1014.85 1014.34 1013.77 1013.17 1012.53 1011.86 1011.15 1010.38 1009.55 1008.67 1007.78 1006.90 1006.10 1005.44 1004.97 1004.76 1004.81
1023.46 1024.00 1024.04 1023.46 1022.29 1020.59 1018.53 1016.35 1014.28 1012.56 1011.38 1010.80 1010.84 1011.40 1012.34 1013.47 1014.60 1015.58 1016.30 1016.72 1016.88 1016.81 1016.62 1016.37 1016.13 1015.94 1015.80 1015.69 1015.57 1015.40 1015.16 1014.82 1014.39 1013.87 1013.29 1012.68 1012.03 1011.36 1010.66 1009.91 1009.12 1008.28 1007.40 1006.52 1005.68 1004.94 1004.36 1003.99 1003.88
1022.75 1023.19 1023.10 1022.42 1021.16 1019.41 1017.35 1015.19 1013.18 1011.55 1010.47 1010.00 1010.13 1010.77 1011.77 1012.93 1014.07 1015.04 1015.74 1016.13 1016.25 1016.15 1015.93 1015.66 1015.42 1015.24 1015.12 1015.04 1014.96 1014.84 1014.62 1014.30 1013.87 1013.35 1012.75 1012.12 1011.46 1010.78 1010.09 1009.37 1008.61 1007.81 1006.97 1006.11 1005.27 1004.49 1003.83 1003.35 1003.09
1021.73 1022.05 1021.88 1021.15 1019.89 1018.19 1016.23 1014.20 1012.35 1010.89 1009.94 1009.58 1009.78 1010.45 1011.43 1012.56 1013.64 1014.54 1015.17 1015.51 1015.58 1015.46 1015.22 1014.96 1014.73 1014.57 1014.47 1014.42 1014.35 1014.24 1014.03 1013.71 1013.27 1012.72 1012.11 1011.46 1010.78 1010.10 1009.42 1008.73 1008.01 1007.26 1006.48 1005.66 1004.84 1004.05 1003.35 1002.80 1002.43
1020.52 1020.72 1020.47 1019.74 1018.54 1016.98 1015.20 1013.40 1011.78 1010.52 1009.74 1009.49 1009.73 1010.39 1011.31 1012.33 1013.30 1014.09 1014.63 1014.90 1014.94 1014.80 1014.57 1014.32 1014.11 1013.97 1013.88 1013.83 1013.76 1013.62 1013.39 1013.04 1012.57 1012.00 1011.36 1010.68 1009.99 1009.32 1008.65 1007.99 1007.32 1006.63 1005.90 1005.15 1004.37 1003.61 1002.91 1002.32 1001.89
Thickness
5709 5715 5717 5710 5694 5687 5690 5708 5720 5718 5719 5723 5725 5722 5715 5706 5702 5690 5702 5711 5711 5709 5705 5703 5702 5702 5702 5702 5701 5701 5701 5700 5700 5700 5700 5700 5700 5700 5701 5701 5701 5701 5701 5702 5702 5702 5702 5703 5703
5706 5713 5709 5698 5684 5678 5692 5708 5710 5711 5715 5720 5720 5719 5712 5704 5705 5701 5702 5705 5706 5705 5702 5699 5698 5697 5697 5697 5697 5696 5696 5696 5696 5695 5695 5696 5696 5696 5696 5696 5696 5696 5696 5696 5696 5696 5697 5697 5698
5704 5709 5697 5689 5685 5684 5692 5706 5706 5710 5715 5714 5711 5712 5705 5698 5700 5699 5700 5702 5702 5700 5698 5695 5693 5693 5692 5692 5692 5692 5691 5691 5691 5691 5691 5691 5691 5691 5691 5691 5690 5690 5690 5690 5690 5691 5691 5691 5692
5699 5696 5692 5682 5682 5694 5700 5703 5705 5703 5706 5709 5706 5698 5696 5698 5698 5696 5698 5699 5697 5695 5692 5690 5689 5688 5687 5687 5687 5686 5686 5686 5686 5686 5686 5686 5686 5686 5686 5685 5685 5684 5684 5684 5684 5685 5685 5685 5686
5694 5685 5677 5675 5683 5694 5700 5703 5703 5698 5698 5702 5701 5691 5683 5690 5694 5693 5693 5693 5691 5689 5687 5685 5683 5683 5682 5682 5681 5681 5681 5681 5681 5681 5681 5681 5681 5681 5680 5680 5680 5679 5679 5678 5678 5679 5679 5680 5680
5681 5680 5668 5669 5681 5691 5696 5699 5698 5694 5694 5697 5695 5687 5679 5685 5686 5686 5688 5687 5686 5684 5682 5680 5678 5677 5677 5677 5676 5676 5676 5675 5676 5676 5676 5675 5675 5675 5674 5674 5674 5674 5674 5673 5673 5673 5673 5674 5674
5672 5670 5668 5674 5678 5682 5688 5694 5690 5687 5687 5689 5692 5682 5675 5678 5680 5682 5682 5681 5679 5677 5676 5674 5673 5672 5671 5671 5671 5670 5670 5670 5669 5670 5670 5669 5669 5669 5669 5668 5668 5668 5668 5668 5666 5667 5667 5667 5667
5672 5667 5668 5672 5674 5676 5684 5686 5687 5683 5681 5689 5688 5676 5668 5672 5676 5676 5675 5674 5672 5671 5669 5668 5667 5666 5666 5665 5665 5664 5664 5663 5663 5663 5663 5663 5663 5663 5662 5662 5661 5661 5661 5661 5660 5661 5661 5661 5661
5670 5655 5658 5668 5670 5672 5678 5675 5678 5681 5678 5679 5679 5674 5673 5672 5671 5668 5666 5665 5664 5663 5663 5662 5662 5661 5660 5659 5659 5658 5658 5657 5657 5657 5657 5657 5656 5657 5656 5655 5655 5655 5655 5655 5654 5654 5654 5654 5654
5658 5648 5658 5668 5670 5668 5669 5669 5669 5669 5666 5666 5666 5667 5667 5665 5663 5660 5658 5656 5656 5656 5656 5656 5656 5655 5654 5653 5652 5652 5651 5651 5651 5651 5651 5651 5650 5650 5650 5649 5649 5648 5648 5648 5648 5647 5647 5647 5647
5654 5650 5657 5662 5664 5662 5660 5661 5665 5660 5655 5659 5658 5657 5658 5656 5654 5653 5651 5651 5650 5650 5650 5650 5649 5648 5648 5647 5646 5646 5645 5645 5645 5645 5644 5644 5644 5644 5643 5643 5642 5641 5641 5641 5640 5640 5639 5639 5639
5647 5649 5652 5652 5653 5651 5650 5653 5653 5652 5652 5658 5657 5655 5652 5649 5647 5646 5646 5645 5645 5644 5643 5643 5643 5642 5641 5640 5640 5639 5639 5638 5638 5638 5638 5638 5637 5637 5636 5636 5635 5634 5634 5633 5632 5632 5632 5632 5632
5639 5640 5644 5645 5644 5643 5642 5642 5643 5644 5649 5652 5652 5650 5646 5644 5642 5642 5641 5640 5639 5637 5637 5636 5636 5635 5634 5634 5633 5632 5632 5631 5631 5631 5631 5630 5630 5629 5629 5628 5628 5627 5626 5625 5624 5624 5624 5623 5623
5634 5633 5634 5636 5636 5635 5631 5632 5633 5638 5643 5643 5643 5641 5639 5637 5637 5635 5634 5633 5633 5631 5630 5629 5629 5627 5627 5626 5626 5625 5624 5624 5623 5623 5623 5623 5622 5622 5621 5620 5620 5619 5619 5618 5617 5616 5616 5615 5615
5626 5621 5623 5628 5628 5627 5623 5619 5626 5634 5635 5633 5633 5633 5632 5632 5632 5630 5629 5627 5626 5625 5623 5622 5621 5620 5619 5618 5618 5617 5616 5616 5615 5615 5615 5615 5614 5614 5613 5612 5612 5611 5611 5610 5609 5608 5607 5607 5606
5614 5609 5607 5620 5621 5618 5610 5607 5623 5629 5627 5624 5625 5625 5625 5625 5625 5625 5624 5622 5620 5618 5616 5614 5613 5612 5611 5610 5609 5609 5608 5607 5607 5607 5606 5606 5606 5606 5605 5604 5603 5603 5602 5602 5601 5601 5599 5597 5597
5602 5598 5602 5608 5613 5611 5603 5602 5616 5622 5620 5617 5618 5618 5617 5617 5618 5617 5617 5615 5613 5611 5608 5606 5605 5603 5602 5601 5601 5600 5600 5599 5598 5598 5598 5597 5597 5597 5596 5595 5595 5594 5594 5593 5593 5592 5591 5589 5588
5590 5593 5598 5598 5602 5600 5595 5598 5608 5613 5613 5611 5612 5611 5610 5609 5609 5609 5609 5607 5605 5602 5600 5598 5596 5594 5593 5592 5592 5591 5590 5590 5589 5588 5588 5588 5587 5587 5587 5586 5586 5586 5585 5584 5584 5583 5582 5580 5579
5590 5588 5587 5592 5595 5590 5589 5592 5600 5605 5605 5603 5603 5603 5602 5601 5602 5601 5600 5598 5596 5593 5591 5589 5587 5585 5583 5582 5581 5580 5580 5579 5579 5579 5579 5578 5578 5578 5578 5577 5577 5577 5576 5576 5575 5574 5572 5570 5570
5579 5576 5577 5580 5585 5583 5580 5585 5594 5597 5596 5597 5596 5595 5594 5593 5593 5592 5591 5589 5586 5584 5582 5579 5578 5576 5575 5574 5572 5571 5570 5570 5570 5569 5569 5568 5568 5568 5568 5567 5567 5567 5567 5566 5566 5565 5563 5562 5561
5569 5566 5566 5567 5571 5573 5569 5572 5584 5590 5592 5591 5591 5589 5588 5586 5584 5584 5582 5579 5577 5574 5572 5571 5569 5567 5566 5565 5563 5561 5560 5559 5558 5558 5558 5558 5558 5558 5558 5557 5558 5558 5558 5557 5556 5556 5555 5552 5552
5555 5560 5558 5554 5549 5550 5560 5547 5572 5581 5579 5582 5580 5579 5577 5577 5576 5575 5573 5570 5568 5566 5563 5562 5560 5558 5557 5556 5554 5552 5551 5549 5549 5549 5548 5547 5547 5548 5547 5547 5548 5548 5548 5548 5547 5547 5546 5544 5543
5544 5547 5546 5545 5541 5536 5546 5538 5556 5575 5569 5570 5571 5571 5569 5568 5567 5565 5563 5561 5559 5557 5554 5553 5551 5549 5548 5547 5545 5543 5542 5541 5540 5539 5538 5537 5537 5537 5537 5537 5537 5538 5538 5538 5538 5538 5537 5536 5535
5536 5535 5534 5533 5527 5518 5538 5534 5545 5562 5565 5565 5565 5563 5562 5560 5558 5556 5554 5552 5549 5547 5545 5544 5542 5541 5540 5538 5536 5534 5533 5531 5530 5528 5527 5527 5527 5527 5527 5527 5527 5528 5529 5529 5528 5529 5528 5528 5527
5523 5513 5507 5508 5506 5518 5538 5533 5542 5561 5564 5561 5557 5555 5553 5551 5548 5545 5543 5541 5540 5538 5537 5535 5533 5532 5530 5528 5526 5525 5523 5522 5520 5519 5518 5518 5517 5517 5517 5517 5517 5518 5519 5519 5519 5519 5519 5519 5518
5510 5507 5497 5497 5504 5518 5524 5523 5541 5553 5554 5553 5550 5547 5544 5542 5539 5537 5535 5533 5530 5529 5527 5526 5524 5523 5521 5519 5517 5515 5513 5512 5511 5510 5509 5509 5509 5508 5507 5507 5507 5508 5508 5509 5510 5510 5510 5510 5509
5502 5496 5501 5493 5490 5492 5512 5529 5538 5543 5541 5540 5539 5536 5534 5533 5531 5528 5526 5525 5522 5520 5518 5516 5515 5513 5511 5509 5507 5506 5504 5503 5502 5501 5500 5500 5500 5499 5498 5497 5497 5498 5498 5499 5500 5500 5501 5500 5500
5495 5494 5484 5480 5480 5488 5512 5520 5520 5525 5526 5525 5525 5523 5523 5523 5521 5519 5517 5516 5514 5512 5509 5507 5505 5503 5501 5499 5498 5497 5495 5493 5493 5492 5492 5491 5491 5491 5489 5489 5488 5488 5488 5489 5490 5491 5491 5490 5491
5482 5479 5477 5476 5479 5479 5488 5505 5522 5519 5518 5515 5512 5512 5510 5509 5509 5507 5505 5505 5504 5502 5500 5498 5496 5494 5492 5490 5489 5487 5486 5484 5483 5483 5483 5483 5482 5482 5481 5481 5480 5480 5480 5480 5481 5481 5482 5481 5481
5476 5475 5468 5460 5462 5471 5472 5489 5512 5508 5506 5503 5500 5500 5499 5499 5498 5496 5495 5495 5493 5492 5490 5489 5487 5485 5483 5481 5480 5478 5477 5476 5475 5475 5474 5474 5473 5473 5473 5473 5472 5472 5472 5472 5473 5473 5473 5473 5472